EW4337 Weather Reports


Display with metric or nautical units.
time (UTC)temp
F
wind
direction
speed
MPH
gust
MPH
rain 1hr
in
rain 24hr
in
rain mn
in
humidity
%
barometer
mb
20180618170657 64 243 4.0 16.0 0.00 0.08 0.08 82 1018.7
20180618165658 64 247 7.0 14.0 0.00 0.08 0.08 83 1018.7
20180618164657 64 254 3.0 13.0 0.00 0.08 0.08 83 1018.6
20180618163658 64 248 5.0 18.0 0.00 0.08 0.08 83 1018.5
20180618162658 64 269 8.0 14.0 0.00 0.08 0.08 84 1018.6
20180618161657 64 256 7.0 16.0 0.00 0.08 0.08 84 1018.5
20180618160657 64 249 7.0 13.0 0.00 0.08 0.08 85 1018.6
20180618155658 64 254 4.0 12.0 0.00 0.08 0.08 85 1018.7
20180618154657 64 252 5.0 16.0 0.00 0.08 0.08 86 1018.8
20180618153658 64 241 7.0 15.0 0.00 0.08 0.08 87 1018.8
20180618152657 64 249 4.0 13.0 0.00 0.08 0.08 88 1018.7
20180618151658 64 258 8.0 14.0 0.00 0.08 0.08 89 1018.6
20180618150657 64 252 3.0 13.0 0.00 0.08 0.08 89 1018.7
20180618145658 64 249 6.0 16.0 0.00 0.08 0.08 90 1018.7
20180618144658 64 254 1.0 13.0 0.00 0.08 0.08 90 1018.7
20180618143658 64 240 4.0 13.0 0.00 0.08 0.08 90 1018.8
20180618142657 64 251 3.0 13.0 0.00 0.08 0.08 91 1018.6
20180618141658 64 250 5.0 18.0 0.00 0.08 0.08 90 1018.5
20180618140658 65 263 10.0 22.0 0.00 0.08 0.08 89 1018.6
20180618135657 66 260 8.0 16.0 0.00 0.08 0.08 89 1018.4
20180618134658 66 252 2.0 14.0 0.00 0.08 0.08 90 1018.2
20180618133658 66 235 2.0 13.0 0.00 0.08 0.08 92 1018.2
20180618132658 65 252 2.0 12.0 0.00 0.08 0.08 94 1018.3
20180618131657 65 235 2.0 10.0 0.00 0.08 0.08 95 1018.4
20180618130657 64 235 3.0 10.0 0.02 0.08 0.08 94 1018.4
20180618125657 64 222 0.0 7.0 0.05 0.08 0.08 95 1018.4
20180618124658 64 201 0.0 6.0 0.07 0.08 0.08 95 1018.4
20180618123657 64 234 1.0 8.0 0.08 0.08 0.08 95 1018.4
20180618122658 64 271 0.0 9.0 0.08 0.08 0.08 95 1018.5
20180618121658 63 261 0.0 8.0 0.08 0.08 0.08 94 1018.5
20180618120658 63 261 3.0 12.0 0.06 0.06 0.06 93 1018.5
20180618115657 63 253 6.0 16.0 0.03 0.03 0.03 91 1018.4
20180618114658 64 250 6.0 14.0 0.01 0.01 0.01 91 1018.5
20180618113658 64 245 6.0 12.0 0.00 0.00 0.00 90 1018.3
20180618112658 65 230 4.0 13.0 0.00 0.00 0.00 89 1018.4
20180618111658 65 254 2.0 12.0 0.00 0.00 0.00 90 1018.3
20180618110658 64 233 3.0 20.0 0.00 0.00 0.00 90 1018.2
20180618105658 64 204 2.0 13.0 0.00 0.00 0.00 90 1018.3
20180618104659 64 225 1.0 13.0 0.00 0.00 0.00 90 1018.3
20180618103659 64 241 1.0 14.0 0.00 0.00 0.00 90 1018.3
20180618102658 64 201 3.0 15.0 0.00 0.00 0.00 91 1018.3
20180618101659 63 226 1.0 15.0 0.00 0.00 0.00 92 1018.3
20180618100658 63 209 5.0 13.0 0.00 0.00 0.00 92 1018.2
20180618095659 63 191 2.0 12.0 0.00 0.00 0.00 93 1018.2
20180618094658 63 236 5.0 15.0 0.00 0.00 0.00 93 1018.1
20180618093659 63 235 3.0 12.0 0.00 0.00 0.00 93 1018.1
20180618092658 62 175 3.0 12.0 0.00 0.00 0.00 93 1018.1
20180618091703 62 210 3.0 12.0 0.00 0.00 0.00 93 1018.1
20180618090659 62 154 2.0 12.0 0.00 0.00 0.00 93 1018.1
20180618085658 62 203 2.0 16.0 0.00 0.00 0.00 93 1018.0
20180618084659 61 195 2.0 13.0 0.00 0.00 0.00 93 1017.9
20180618083658 61 236 1.0 12.0 0.00 0.00 0.00 94 1017.9
20180618082659 61 197 2.0 10.0 0.00 0.00 0.00 93 1017.8
20180618081659 60 186 3.0 15.0 0.00 0.00 0.00 94 1017.8
20180618080658 60 181 3.0 13.0 0.00 0.00 0.00 94 1017.7
20180618075659 59 179 2.0 12.0 0.00 0.00 0.00 94 1017.8
20180618074659 59 186 2.0 12.0 0.00 0.00 0.00 94 1017.8
20180618073659 59 202 1.0 8.0 0.00 0.00 0.00 95 1017.8
20180618072659 59 191 2.0 15.0 0.00 0.00 0.00 95 1017.8
20180618071659 58 180 2.0 12.0 0.00 0.00 0.00 96 1017.8
20180618070659 58 169 3.0 14.0 0.00 0.00 0.00 96 1017.8
20180618065704 58 163 6.0 13.0 0.00 0.00 0.00 96 1017.7
20180618064659 58 176 1.0 12.0 0.00 0.00 0.00 96 1017.8
20180618063659 57 194 3.0 12.0 0.00 0.00 0.00 96 1017.6
20180618062658 57 188 2.0 10.0 0.00 0.00 0.00 96 1017.6
20180618061659 57 189 3.0 12.0 0.00 0.00 0.00 96 1017.4
20180618060659 57 176 2.0 13.0 0.00 0.00 0.00 95 1017.5
20180618055659 57 194 1.0 15.0 0.00 0.00 0.00 95 1017.5
20180618054659 57 185 3.0 14.0 0.00 0.00 0.00 95 1017.5
20180618053659 57 179 1.0 12.0 0.00 0.00 0.00 95 1017.5
20180618052659 57 180 0.0 9.0 0.00 0.00 0.00 95 1017.6
20180618051659 57 181 3.0 12.0 0.00 0.00 0.00 94 1017.5
20180618050659 57 166 3.0 12.0 0.00 0.00 0.00 94 1017.7
20180618045659 57 174 1.0 9.0 0.00 0.00 0.00 93 1017.7
20180618044659 57 183 1.0 10.0 0.00 0.00 0.00 93 1017.8
20180618043659 57 185 2.0 13.0 0.00 0.00 0.00 92 1017.8
20180618042700 57 204 3.0 13.0 0.00 0.00 0.00 92 1017.9
20180618041659 57 177 2.0 12.0 0.00 0.00 0.00 92 1017.8
20180618040659 57 188 2.0 12.0 0.00 0.00 0.00 92 1017.8
20180618035659 57 208 3.0 12.0 0.00 0.00 0.00 92 1017.8
20180618034659 57 206 1.0 8.0 0.00 0.00 0.00 92 1017.9
20180618033700 57 207 1.0 12.0 0.00 0.00 0.00 91 1017.9
20180618032700 57 177 1.0 6.0 0.00 0.00 0.00 91 1017.9
20180618031659 57 188 2.0 7.0 0.00 0.00 0.00 91 1017.8
20180618030700 57 175 3.0 16.0 0.00 0.00 0.00 92 1017.8
20180618025659 56 183 0.0 5.0 0.00 0.00 0.00 91 1017.7
20180618024659 56 190 1.0 6.0 0.00 0.00 0.00 92 1017.7
20180618023659 56 188 1.0 6.0 0.00 0.00 0.00 92 1017.6
20180618022700 56 189 1.0 6.0 0.00 0.00 0.00 92 1017.8
20180618021700 55 184 2.0 9.0 0.00 0.00 0.00 92 1017.8
20180618020700 55 180 1.0 7.0 0.00 0.00 0.00 92 1017.8
20180618015700 55 176 2.0 7.0 0.00 0.00 0.00 92 1017.8
20180618014659 55 175 1.0 7.0 0.00 0.00 0.00 92 1017.8
20180618013659 54 235 0.0 5.0 0.00 0.00 0.00 92 1017.8
20180618012659 54 179 1.0 7.0 0.00 0.00 0.00 92 1017.9
20180618011700 54 197 0.0 5.0 0.00 0.00 0.00 91 1018.0
20180618010659 54 191 0.0 3.0 0.00 0.00 0.00 92 1018.1
20180618005700 55 217 0.0 0.0 0.00 0.00 0.00 91 1018.1
20180618004659 55 219 0.0 1.0 0.00 0.00 0.00 91 1018.1
20180618003659 55 210 0.0 6.0 0.00 0.00 0.00 91 1018.1
20180618002700 55 231 0.0 3.0 0.00 0.00 0.00 91 1018.2
20180618001700 56 199 2.0 7.0 0.00 0.00 0.00 91 1018.1
20180618000700 56 156 1.0 6.0 0.00 0.00 0.00 91 1018.1
20180617235700 56 178 0.0 6.0 0.00 0.00 0.00 91 1018.4
20180617234700 56 198 0.0 5.0 0.00 0.00 0.00 91 1018.5
20180617233700 56 195 1.0 5.0 0.00 0.00 0.00 91 1018.4
20180617232700 56 207 0.0 3.0 0.00 0.00 0.00 90 1018.4
20180617231700 56 177 0.0 1.0 0.00 0.00 0.00 90 1018.3
20180617230700 57 196 0.0 6.0 0.00 0.00 0.00 90 1018.3
20180617225700 57 181 0.0 5.0 0.00 0.00 0.00 90 1018.4
20180617224700 57 198 0.0 2.0 0.00 0.00 0.00 90 1018.7
20180617223700 57 202 0.0 3.0 0.00 0.00 0.00 90 1018.4
20180617222700 57 194 0.0 3.0 0.00 0.00 0.00 89 1018.4
20180617221700 57 212 0.0 5.0 0.00 0.00 0.00 89 1018.3
20180617220659 57 210 0.0 3.0 0.00 0.00 0.00 89 1018.4
20180617215700 57 196 0.0 0.0 0.00 0.00 0.00 89 1018.3
20180617214700 57 199 0.0 0.0 0.00 0.00 0.00 88 1018.5
20180617213701 57 195 0.0 1.0 0.00 0.00 0.00 88 1018.5
20180617212700 58 190 0.0 5.0 0.00 0.00 0.00 88 1018.4
20180617211701 58 197 0.0 1.0 0.00 0.00 0.00 88 1018.4
20180617210700 58 212 0.0 0.0 0.00 0.00 0.00 87 1018.4
20180617205701 58 212 0.0 0.0 0.00 0.00 0.00 87 1018.4
20180617204701 58 217 0.0 3.0 0.00 0.00 0.00 87 1018.4
20180617203701 58 206 0.0 2.0 0.00 0.00 0.00 87 1018.3
20180617202701 58 224 0.0 8.0 0.00 0.00 0.00 87 1018.4
20180617201701 58 234 0.0 8.0 0.00 0.00 0.00 87 1018.4
20180617200701 58 229 0.0 3.0 0.00 0.00 0.00 87 1018.5
20180617195700 58 203 1.0 5.0 0.00 0.00 0.00 86 1018.3
20180617194701 58 217 0.0 5.0 0.00 0.00 0.00 86 1018.3
20180617193701 58 202 0.0 5.0 0.00 0.00 0.00 85 1018.1
20180617192701 58 169 0.0 5.0 0.00 0.00 0.00 85 1018.0
20180617191700 58 203 0.0 5.0 0.00 0.00 0.00 85 1018.1
20180617190700 58 175 0.0 3.0 0.00 0.00 0.00 86 1018.1
20180617185701 58 182 0.0 0.0 0.00 0.00 0.00 86 1018.2
20180617184701 58 182 0.0 0.0 0.00 0.00 0.00 86 1018.1
20180617183701 59 182 0.0 0.0 0.00 0.00 0.00 86 1018.0
20180617182701 59 210 0.0 0.0 0.00 0.00 0.00 85 1017.8
20180617181701 59 187 0.0 9.0 0.00 0.00 0.00 84 1017.8
20180617180701 59 184 0.0 0.0 0.00 0.00 0.00 83 1017.8
20180617175701 60 214 0.0 12.0 0.00 0.00 0.00 82 1017.8
20180617174701 61 192 4.0 10.0 0.00 0.00 0.00 79 1017.8
20180617173701 61 149 0.0 7.0 0.00 0.00 0.00 76 1017.7
20180617172701 62 142 3.0 8.0 0.00 0.00 0.00 73 1017.6
20180617171701 63 283 3.0 9.0 0.00 0.00 0.00 73 1017.6